Regional Weather Roundup
Issued by NWS Albany, NY

Home | Current Version | Previous Version | Graphics & Text | Print | Product List | Glossary Off
Versions: 1 2 3 4 5 6 7 8 9 10 11 12 13 14 15 16 17 18 19 20 21 22 23 24 25 26 27 28 29 30 31 32 33 34 35 36 37 38 39 40 41 42 43 44 45 46 47 48 49 50

000
ASUS41 KALY 220910
RWRALY

NEW YORK STATE HOURLY WEATHER ROUNDUP
NATIONAL WEATHER SERVICE ALBANY NY
400 AM EST MON JAN 22 2018

NOTE: "FAIR" INDICATES FEW OR NO CLOUDS BELOW 12,000 FEET WITH NO
SIGNIFICANT WEATHER AND/OR NO OBSTRUCTIONS TO VISIBILITY.

NYZ032-033-038>043-046>054-057>066-NYZ062>081-082-084-221000-
EAST


CITY           SKY/WX    TMP DP  RH WIND       PRES   REMARKS
ALBANY         DRIZZLE   33  30  88 N3        30.16S FOG
GLENS FALLS    CLOUDY    31  30  96 NE5       30.17S FOG     WCI  26
POUGHKEEPSIE   CLOUDY    34  33  96 CALM      30.13F FOG
NEWBURGH       LGT RAIN  36  36 100 CALM      30.14S
MONTGOMERY     LGT RAIN  35  34  96 CALM      30.11F FOG
WHITE PLAINS   CLOUDY    38  34  85 CALM      30.12F
ISLIP          CLOUDY    43  40  89 SE3       30.15F
NEW YORK CITY  CLOUDY    38  34  85 NE8       30.13F WCI  32
CENTRAL PARK   CLOUDY    43  37  79 CALM      30.15F
$$

NYZ005>009-017-018-044>046-055-056-221000-
CENTRAL


CITY           SKY/WX    TMP DP  RH WIND       PRES   REMARKS
FULTON         CLOUDY    36  34  92 E5        30.09F FOG     WCI  32
SYRACUSE       LGT RAIN  34  34 100 E3        30.09F FOG
ROME           CLOUDY    35  32  88 E8        30.12F WCI  29
ELMIRA         FOG       35  35 100 CALM      30.07F VSB 1
BINGHAMTON     LGT RAIN  38  38 100 S3        30.05F VSB 1/2
MONTICELLO     MIX PCPN  36  36 100 CALM      30.10S FOG
$$

NYZ026>034-041>043-087-221000-
NORTH


CITY           SKY/WX    TMP DP  RH WIND       PRES   REMARKS
WATERTOWN      CLOUDY    35  32  88 N6        30.11S FOG     WCI  30
FORT DRUM      NOT AVBL
OGDENSBURG     MOCLDY    28  24  87 NE9       30.16F WCI  19
MASSENA        CLOUDY    24  20  84 E16G23    30.21F WCI  11
SARANAC LAKE   CLOUDY    28  25  88 NE7       30.09F WCI  21
PLATTSBURGH    CLOUDY    24  18  77 N10       30.23R WCI  14
$$

NYZ001>004-010>016-019>021-085-221000-
WEST


CITY           SKY/WX    TMP DP  RH WIND       PRES   REMARKS
NIAGARA FALLS    N/A     38  35  89 E5        30.04S VSB 1/4 WCI  34
BUFFALO        DRZL/FOG  38  38 100 CALM      30.04F VSB 3/4
DUNKIRK        HAZE      49  38  65 E3        30.03S VSB 1/2
JAMESTOWN      FOG       39  39 100 S7        30.02F VSB 1/4 WCI  34
WELLSVILLE     FOG       41  39  93 E3        30.03F VSB 1/4
ROCHESTER      CLOUDY    36  36 100 CALM      30.08R FOG
PENN YAN       FOG       36  34  92 W8        30.06S VSB 1/2 WCI  30
$$

             KEY
       WCI = WIND CHILL INDEX
       VSB = VISIBILITY
       HX  = HEAT INDEX
$$



USA.gov is the U.S. government's official web portal to all federal, state and local government web resources and services.